When you browse on this site, cookies collect data to enhance your experience and personalize the content and advertising you see.
Visit our Privacy Policy to learn more. By continuing to use the site, you agree to this use of cookies and data.
  • In Hungary
  • List of Countries
  • For 7 days
  • Water Temperature
  • Satellite Maps
  • Weather Map
  • News
  • Weather Widgets
  • user-avatar
    Login

    Hourly Weather Trzebinia

    Today, 16 January, Wednesday

    Time Temperature Precipitation Wind Pressure Humidity
    00:00 -1°C° 0.6 mm 7 mps 721 mmHg 91%
    01:00 -1°C° 0 mm 4 mps 721 mmHg 95%
    02:00 0°C° 0.6 mm 5 mps 721 mmHg 94%
    03:00 -1°C° 0.6 mm 6 mps 722 mmHg 93%
    04:00 -1°C° 0.6 mm 7 mps 722 mmHg 92%
    05:00 -1°C° 0.4 mm 6 mps 722 mmHg 94%
    06:00 -1°C° 0.4 mm 6 mps 723 mmHg 95%
    07:00 -1°C° 0 mm 5 mps 723 mmHg 95%
    08:00 0°C° 0.4 mm 5 mps 724 mmHg 96%
    09:00 0°C° 0.4 mm 5 mps 724 mmHg 96%
    10:00 0°C° 0.4 mm 5 mps 724 mmHg 97%
    11:00 0°C° 0.1 mm 5 mps 725 mmHg 97%
    12:00 0°C° 0.1 mm 5 mps 725 mmHg 97%
    13:00 0°C° 0.1 mm 4 mps 725 mmHg 98%
    14:00 0°C° 0 mm 4 mps 725 mmHg 97%
    15:00 +1°C° 0 mm 3 mps 725 mmHg 96%
    16:00 0°C° 0 mm 3 mps 725 mmHg 95%
    17:00 0°C° 0 mm 3 mps 725 mmHg 93%
    18:00 0°C° 0 mm 3 mps 725 mmHg 92%
    19:00 -1°C° 0 mm 3 mps 725 mmHg 90%
    20:00 -1°C° 0 mm 3 mps 725 mmHg 90%
    21:00 -1°C° 0 mm 3 mps 725 mmHg 90%
    22:00 -2°C° 0 mm 2 mps 725 mmHg 90%
    23:00 -1°C° 0 mm 3 mps 724 mmHg 89%

    Tomorrow, 17 January, Thursday

    Time Temperature Precipitation Wind Pressure Humidity
    00:00 -1°C° 0 mm 3 mps 724 mmHg 88%
    01:00 -1°C° 0 mm 3 mps 724 mmHg 87%
    02:00 -1°C° 0 mm 3 mps 723 mmHg 82%
    03:00 -2°C° 0 mm 4 mps 723 mmHg 78%
    04:00 -1°C° 0 mm 4 mps 722 mmHg 74%
    05:00 -1°C° 0 mm 4 mps 722 mmHg 73%
    06:00 -1°C° 0 mm 5 mps 722 mmHg 72%
    07:00 -1°C° 0 mm 5 mps 722 mmHg 71%
    08:00 0°C° 0 mm 5 mps 722 mmHg 71%
    09:00 -1°C° 0 mm 6 mps 722 mmHg 72%
    10:00 +1°C° 0 mm 6 mps 722 mmHg 72%
    11:00 +1°C° 0 mm 6 mps 722 mmHg 75%
    12:00 +1°C° 0 mm 6 mps 722 mmHg 77%
    13:00 +1°C° 0 mm 6 mps 722 mmHg 80%
    14:00 +1°C° 0 mm 6 mps 722 mmHg 81%
    15:00 0°C° 0 mm 5 mps 722 mmHg 82%
    16:00 0°C° 0 mm 5 mps 722 mmHg 83%
    17:00 0°C° 0 mm 5 mps 722 mmHg 83%
    18:00 0°C° 0 mm 5 mps 722 mmHg 83%
    19:00 -1°C° 0 mm 6 mps 722 mmHg 83%
    20:00 -1°C° 0 mm 6 mps 722 mmHg 83%
    21:00 -1°C° 0 mm 6 mps 722 mmHg 83%
    22:00 -1°C° 0 mm 7 mps 722 mmHg 84%
    23:00 -1°C° 0.2 mm 6 mps 723 mmHg 84%

    Day after tomorrow, 18 January, Friday

    Time Temperature Precipitation Wind Pressure Humidity
    00:00 -1°C° 0.2 mm 6 mps 723 mmHg 85%
    01:00 0°C° 0.2 mm 5 mps 723 mmHg 86%
    02:00 -2°C° 0 mm 6 mps 724 mmHg 83%
    03:00 -3°C° 0 mm 6 mps 724 mmHg 79%
    04:00 -3°C° 0 mm 6 mps 724 mmHg 76%
    05:00 -4°C° 0 mm 6 mps 725 mmHg 76%
    06:00 -4°C° 0 mm 6 mps 725 mmHg 76%
    07:00 -4°C° 0 mm 6 mps 726 mmHg 76%
    08:00 -4°C° 0 mm 6 mps 727 mmHg 74%
    09:00 -4°C° 0 mm 7 mps 728 mmHg 72%
    10:00 -4°C° 0 mm 7 mps 728 mmHg 70%
    11:00 -4°C° 0 mm 7 mps 729 mmHg 71%
    12:00 -3°C° 0 mm 6 mps 730 mmHg 73%
    13:00 -3°C° 0 mm 6 mps 730 mmHg 74%
    14:00 -4°C° 0 mm 5 mps 731 mmHg 76%
    15:00 -3°C° 0 mm 4 mps 731 mmHg 78%
    16:00 -2°C° 0 mm 3 mps 732 mmHg 80%
    17:00 -4°C° 0 mm 3 mps 732 mmHg 82%
    18:00 -3°C° 0 mm 2 mps 733 mmHg 84%
    19:00 -4°C° 0 mm 2 mps 733 mmHg 85%
    20:00 -4°C° 0 mm 2 mps 733 mmHg 85%
    21:00 -4°C° 0 mm 2 mps 733 mmHg 85%
    22:00 -4°C° 0 mm 2 mps 734 mmHg 85%
    23:00 -5°C° 0 mm 2 mps 734 mmHg 84%

    19 January, Saturday

    Time Temperature Precipitation Wind Pressure Humidity
    00:00 -5°C° 0 mm 2 mps 733 mmHg 84%
    01:00 -3°C° 0 mm 1 mps 733 mmHg 84%
    02:00 -3°C° 0 mm 1 mps 733 mmHg 83%
    03:00 -3°C° 0 mm 1 mps 733 mmHg 82%
    04:00 -5°C° 0 mm 2 mps 733 mmHg 81%
    05:00 -5°C° 0 mm 2 mps 733 mmHg 80%
    06:00 -5°C° 0 mm 2 mps 733 mmHg 79%
    07:00 -5°C° 0 mm 2 mps 733 mmHg 79%
    08:00 -3°C° 0 mm 1 mps 733 mmHg 76%
    09:00 -2°C° 0 mm 1 mps 733 mmHg 73%
    10:00 -2°C° 0 mm 1 mps 733 mmHg 71%
    11:00 -1°C° 0 mm 1 mps 732 mmHg 68%
    12:00 0°C° 0 mm 1 mps 732 mmHg 65%
    13:00 0°C° 0 mm 1 mps 732 mmHg 63%
    14:00 0°C° 0 mm 1 mps 731 mmHg 66%
    15:00 -1°C° 0 mm 1 mps 731 mmHg 69%
    16:00 -1°C° 0 mm 1 mps 731 mmHg 73%
    17:00 -1°C° 0 mm 1 mps 731 mmHg 73%
    18:00 -2°C° 0 mm 1 mps 731 mmHg 73%
    19:00 -2°C° 0 mm 1 mps 731 mmHg 73%
    20:00 -2°C° 0 mm 1 mps 731 mmHg 73%
    21:00 -2°C° 0 mm 1 mps 731 mmHg 74%
    22:00 -2°C° 0 mm 1 mps 730 mmHg 74%
    23:00 -2°C° 0 mm 1 mps 730 mmHg 75%

    20 January, Sunday

    Time Temperature Precipitation Wind Pressure Humidity
    00:00 -2°C° 0 mm 1 mps 730 mmHg 76%
    01:00 -2°C° 0 mm 1 mps 730 mmHg 77%
    02:00 -2°C° 0 mm 1 mps 729 mmHg 78%
    03:00 -2°C° 0 mm 1 mps 729 mmHg 79%
    04:00 -3°C° 0 mm 1 mps 728 mmHg 80%
    05:00 -3°C° 0 mm 1 mps 728 mmHg 81%
    06:00 -3°C° 0 mm 1 mps 728 mmHg 82%
    07:00 -3°C° 0 mm 1 mps 728 mmHg 83%
    08:00 -3°C° 0 mm 1 mps 729 mmHg 81%
    09:00 -2°C° 0 mm 1 mps 729 mmHg 79%
    10:00 -1°C° 0 mm 1 mps 729 mmHg 77%
    11:00 -1°C° 0 mm 1 mps 729 mmHg 74%
    12:00 0°C° 0 mm 1 mps 728 mmHg 71%
    13:00 0°C° 0 mm 1 mps 728 mmHg 69%
    14:00 0°C° 0 mm 1 mps 728 mmHg 71%
    15:00 -1°C° 0 mm 1 mps 728 mmHg 74%
    16:00 -2°C° 0 mm 1 mps 728 mmHg 77%
    17:00 -3°C° 0 mm 0 mps 728 mmHg 78%
    18:00 -3°C° 0 mm 0 mps 729 mmHg 78%
    19:00 -4°C° 0 mm 0 mps 729 mmHg 79%
    20:00 -4°C° 0 mm 0 mps 729 mmHg 79%
    21:00 -4°C° 0 mm 0 mps 730 mmHg 79%
    22:00 -3°C° 0 mm 1 mps 730 mmHg 79%
    23:00 -3°C° 0 mm 1 mps 730 mmHg 80%

    21 January, Monday

    Time Temperature Precipitation Wind Pressure Humidity
    00:00 -3°C° 0 mm 1 mps 730 mmHg 80%
    01:00 -3°C° 0 mm 1 mps 731 mmHg 80%
    02:00 -3°C° 0 mm 1 mps 731 mmHg 81%
    03:00 -3°C° 0 mm 1 mps 731 mmHg 82%
    04:00 -4°C° 0 mm 1 mps 732 mmHg 82%
    05:00 -4°C° 0 mm 1 mps 732 mmHg 84%
    06:00 -3°C° 0 mm 1 mps 733 mmHg 86%
    07:00 -3°C° 0 mm 1 mps 733 mmHg 88%
    08:00 -5°C° 0 mm 2 mps 734 mmHg 86%
    09:00 -5°C° 0 mm 2 mps 734 mmHg 85%
    10:00 -4°C° 0 mm 2 mps 735 mmHg 84%
    11:00 -4°C° 0 mm 2 mps 735 mmHg 78%
    12:00 -4°C° 0 mm 2 mps 735 mmHg 71%
    13:00 -3°C° 0 mm 2 mps 735 mmHg 65%
    14:00 -4°C° 0 mm 2 mps 735 mmHg 67%
    15:00 -4°C° 0 mm 2 mps 736 mmHg 69%
    16:00 -3°C° 0 mm 1 mps 736 mmHg 72%
    17:00 -3°C° 0 mm 1 mps 736 mmHg 73%
    18:00 -4°C° 0 mm 1 mps 737 mmHg 75%
    19:00 -4°C° 0 mm 1 mps 737 mmHg 77%
    20:00 -4°C° 0 mm 1 mps 737 mmHg 78%
    21:00 -6°C° 0 mm 1 mps 738 mmHg 79%
    22:00 -6°C° 0 mm 0 mps 738 mmHg 80%
    23:00 -6°C° 0 mm 1 mps 738 mmHg 81%
    Show more